Location: Champseau
(45.8333°N, 1.7667°E)
Time: 18:23:15
(UTC+00:00)

STRAND 1 - Pass Details

Date: 07 December 2021
Orbit: 768 x 780 km, 98.4° (Epoch: 23 January)

Event Time Altitude Azimuth Distance (km) Brightness Sun altitude
Rises 04:10:06 0° 102° (ESE) 3,250 ? -32.2°
Reaches altitude 10° 04:14:39 10° 64° (ENE) 2,325 ? -31.4°
Maximum altitude 04:15:34 10° 53° (NE) 2,293 ? -31.3°
Drops below altitude 10° 04:16:29 10° 43° (NE) 2,326 ? -31.1°
Sets 04:21:02 0° 5° (N) 3,257 ? -30.3°
